• In Portugal
  • List of Countries
  • For 7 days
  • Water Temperature
  • Satellite Maps
  • Weather Map
  • Weather Widgets
  • user-avatar
    Login

    Hourly Weather Artashat

    Today, 23 May, Wednesday

    Time Temperature Precipitation Wind Pressure Humidity
    00:00 +12°C° 0.5 mm 1 mps 605 mmHg 74%
    01:00 +11°C° 0.1 mm 1 mps 605 mmHg 75%
    02:00 +11°C° 0.1 mm 1 mps 605 mmHg 76%
    03:00 +10°C° 0 mm 1 mps 604 mmHg 78%
    04:00 +11°C° 0 mm 1 mps 605 mmHg 76%
    05:00 +11°C° 0 mm 1 mps 605 mmHg 74%
    06:00 +12°C° 0 mm 1 mps 605 mmHg 72%
    07:00 +13°C° 0 mm 2 mps 606 mmHg 66%
    08:00 +14°C° 0 mm 2 mps 606 mmHg 59%
    09:00 +16°C° 0 mm 2 mps 607 mmHg 54%
    10:00 +17°C° 0.1 mm 3 mps 607 mmHg 50%
    11:00 +18°C° 0.1 mm 3 mps 607 mmHg 47%
    12:00 +19°C° 0.1 mm 3 mps 607 mmHg 43%
    13:00 +20°C° 0.3 mm 4 mps 607 mmHg 41%
    14:00 +20°C° 0.3 mm 4 mps 607 mmHg 38%
    15:00 +21°C° 0.3 mm 5 mps 607 mmHg 36%
    16:00 +20°C° 0.3 mm 4 mps 607 mmHg 38%
    17:00 +20°C° 0.3 mm 4 mps 607 mmHg 41%
    18:00 +19°C° 0.3 mm 4 mps 606 mmHg 43%
    19:00 +17°C° 0.2 mm 3 mps 606 mmHg 47%
    20:00 +16°C° 0.2 mm 3 mps 606 mmHg 51%
    21:00 +15°C° 0.2 mm 2 mps 605 mmHg 55%
    22:00 +14°C° 0 mm 2 mps 605 mmHg 57%
    23:00 +13°C° 0 mm 2 mps 605 mmHg 58%

    Tomorrow, 24 May, Thursday

    Time Temperature Precipitation Wind Pressure Humidity
    00:00 +12°C° 0 mm 2 mps 605 mmHg 60%
    01:00 +12°C° 0 mm 1 mps 604 mmHg 61%
    02:00 +11°C° 0 mm 1 mps 604 mmHg 62%
    03:00 +11°C° 0 mm 1 mps 604 mmHg 63%
    04:00 +11°C° 0 mm 1 mps 604 mmHg 62%
    05:00 +12°C° 0 mm 1 mps 604 mmHg 60%
    06:00 +12°C° 0 mm 1 mps 604 mmHg 58%
    07:00 +13°C° 0 mm 1 mps 604 mmHg 54%
    08:00 +14°C° 0 mm 1 mps 604 mmHg 50%
    09:00 +15°C° 0 mm 2 mps 605 mmHg 46%
    10:00 +16°C° 0 mm 2 mps 605 mmHg 43%
    11:00 +17°C° 0 mm 2 mps 605 mmHg 40%
    12:00 +18°C° 0 mm 3 mps 605 mmHg 37%
    13:00 +19°C° 0.1 mm 3 mps 605 mmHg 35%
    14:00 +19°C° 0.1 mm 3 mps 605 mmHg 33%
    15:00 +20°C° 0.1 mm 3 mps 605 mmHg 32%
    16:00 +19°C° 0.2 mm 3 mps 604 mmHg 35%
    17:00 +19°C° 0.2 mm 3 mps 604 mmHg 38%
    18:00 +18°C° 0.2 mm 3 mps 604 mmHg 41%
    19:00 +17°C° 0 mm 2 mps 603 mmHg 45%
    20:00 +15°C° 0 mm 2 mps 603 mmHg 49%
    21:00 +14°C° 0 mm 1 mps 602 mmHg 53%
    22:00 +13°C° 0 mm 1 mps 602 mmHg 56%
    23:00 +12°C° 0 mm 1 mps 602 mmHg 58%

    Day after tomorrow, 25 May, Friday

    Time Temperature Precipitation Wind Pressure Humidity
    00:00 +12°C° 0 mm 1 mps 601 mmHg 60%
    01:00 +11°C° 0 mm 1 mps 601 mmHg 61%
    02:00 +11°C° 0 mm 1 mps 601 mmHg 63%
    03:00 +10°C° 0 mm 1 mps 600 mmHg 65%
    04:00 +11°C° 0 mm 1 mps 600 mmHg 63%
    05:00 +12°C° 0 mm 1 mps 601 mmHg 61%
    06:00 +12°C° 0 mm 1 mps 601 mmHg 60%
    07:00 +14°C° 0 mm 1 mps 601 mmHg 55%
    08:00 +15°C° 0 mm 1 mps 602 mmHg 50%
    09:00 +16°C° 0 mm 1 mps 602 mmHg 46%
    10:00 +18°C° 0.1 mm 1 mps 602 mmHg 43%
    11:00 +18°C° 0.1 mm 2 mps 602 mmHg 40%
    12:00 +20°C° 0.1 mm 2 mps 602 mmHg 38%
    13:00 +20°C° 0.1 mm 2 mps 602 mmHg 37%
    14:00 +20°C° 0.1 mm 2 mps 602 mmHg 36%
    15:00 +21°C° 0.1 mm 2 mps 602 mmHg 35%
    16:00 +20°C° 0.1 mm 2 mps 602 mmHg 37%
    17:00 +20°C° 0.1 mm 2 mps 602 mmHg 39%
    18:00 +19°C° 0.1 mm 2 mps 602 mmHg 41%
    19:00 +18°C° 0.1 mm 2 mps 602 mmHg 45%
    20:00 +16°C° 0.1 mm 2 mps 601 mmHg 49%
    21:00 +15°C° 0.1 mm 2 mps 601 mmHg 53%
    22:00 +14°C° 0 mm 1 mps 601 mmHg 54%
    23:00 +13°C° 0 mm 1 mps 601 mmHg 56%

    26 May, Saturday

    Time Temperature Precipitation Wind Pressure Humidity
    00:00 +13°C° 0 mm 1 mps 600 mmHg 57%
    01:00 +12°C° 0 mm 1 mps 600 mmHg 59%
    02:00 +12°C° 0 mm 1 mps 600 mmHg 60%
    03:00 +11°C° 0 mm 1 mps 600 mmHg 61%
    04:00 +12°C° 0 mm 1 mps 600 mmHg 60%
    05:00 +13°C° 0 mm 1 mps 601 mmHg 59%
    06:00 +13°C° 0 mm 1 mps 601 mmHg 58%
    07:00 +15°C° 0 mm 1 mps 602 mmHg 52%
    08:00 +16°C° 0 mm 1 mps 602 mmHg 47%
    09:00 +19°C° 0 mm 1 mps 603 mmHg 41%
    10:00 +20°C° 0 mm 1 mps 603 mmHg 38%
    11:00 +20°C° 0 mm 2 mps 603 mmHg 36%
    12:00 +21°C° 0 mm 2 mps 604 mmHg 33%
    13:00 +21°C° 0.1 mm 2 mps 604 mmHg 32%
    14:00 +21°C° 0.1 mm 3 mps 603 mmHg 32%
    15:00 +22°C° 0.1 mm 3 mps 603 mmHg 32%
    16:00 +21°C° 0.1 mm 3 mps 603 mmHg 34%
    17:00 +21°C° 0.1 mm 3 mps 603 mmHg 37%
    18:00 +20°C° 0.1 mm 3 mps 603 mmHg 39%
    19:00 +18°C° 0 mm 3 mps 603 mmHg 44%
    20:00 +17°C° 0 mm 2 mps 603 mmHg 49%
    21:00 +15°C° 0 mm 2 mps 603 mmHg 54%
    22:00 +14°C° 0.2 mm 2 mps 603 mmHg 57%
    23:00 +14°C° 0.2 mm 1 mps 603 mmHg 60%

    27 May, Sunday

    Time Temperature Precipitation Wind Pressure Humidity
    00:00 +13°C° 0.2 mm 1 mps 603 mmHg 63%
    01:00 +13°C° 0 mm 1 mps 603 mmHg 63%
    02:00 +12°C° 0 mm 1 mps 603 mmHg 63%
    03:00 +12°C° 0 mm 1 mps 603 mmHg 63%
    04:00 +13°C° 0 mm 1 mps 603 mmHg 61%
    05:00 +13°C° 0 mm 1 mps 604 mmHg 59%
    06:00 +14°C° 0 mm 1 mps 604 mmHg 57%
    07:00 +15°C° 0 mm 1 mps 605 mmHg 51%
    08:00 +18°C° 0 mm 1 mps 606 mmHg 44%
    09:00 +20°C° 0 mm 1 mps 607 mmHg 38%
    10:00 +20°C° 0 mm 2 mps 607 mmHg 35%
    11:00 +21°C° 0 mm 2 mps 607 mmHg 31%
    12:00 +23°C° 0 mm 2 mps 608 mmHg 28%
    13:00 +23°C° 0 mm 2 mps 608 mmHg 27%
    14:00 +24°C° 0 mm 3 mps 608 mmHg 26%
    15:00 +24°C° 0 mm 3 mps 608 mmHg 26%
    16:00 +22°C° 0 mm 3 mps 608 mmHg 28%
    17:00 +23°C° 0 mm 2 mps 608 mmHg 30%
    18:00 +21°C° 0 mm 2 mps 608 mmHg 32%
    19:00 +19°C° 0 mm 2 mps 607 mmHg 37%
    20:00 +17°C° 0 mm 2 mps 607 mmHg 42%
    21:00 +15°C° 0 mm 1 mps 606 mmHg 47%
    22:00 +15°C° 0 mm 1 mps 606 mmHg 49%
    23:00 +14°C° 0 mm 1 mps 606 mmHg 52%

    28 May, Monday

    Time Temperature Precipitation Wind Pressure Humidity
    00:00 +13°C° 0 mm 1 mps 606 mmHg 54%
    01:00 +13°C° 0 mm 1 mps 606 mmHg 56%
    02:00 +12°C° 0 mm 1 mps 606 mmHg 59%
    03:00 +12°C° 0 mm 1 mps 605 mmHg 61%
    04:00 +12°C° 0 mm 1 mps 606 mmHg 59%
    05:00 +13°C° 0 mm 1 mps 606 mmHg 58%
    06:00 +14°C° 0 mm 1 mps 607 mmHg 56%
    07:00 +15°C° 0 mm 1 mps 607 mmHg 51%
    08:00 +18°C° 0 mm 1 mps 607 mmHg 47%
    09:00 +20°C° 0 mm 1 mps 608 mmHg 42%
    10:00 +20°C° 0 mm 2 mps 608 mmHg 38%
    11:00 +21°C° 0 mm 2 mps 608 mmHg 35%
    12:00 +23°C° 0 mm 2 mps 608 mmHg 32%
    13:00 +24°C° 0 mm 2 mps 608 mmHg 31%
    14:00 +24°C° 0 mm 2 mps 608 mmHg 30%
    15:00 +25°C° 0 mm 3 mps 608 mmHg 28%
    16:00 +24°C° 0.1 mm 2 mps 607 mmHg 31%
    17:00 +23°C° 0.1 mm 2 mps 607 mmHg 34%
    18:00 +22°C° 0.1 mm 1 mps 607 mmHg 37%
    19:00 +21°C° 0 mm 1 mps 606 mmHg 41%
    20:00 +19°C° 0 mm 1 mps 606 mmHg 45%
    21:00 +16°C° 0 mm 1 mps 605 mmHg 49%
    22:00 +16°C° 0 mm 1 mps 605 mmHg 51%
    23:00 +15°C° 0 mm 1 mps 604 mmHg 53%
    Show more